Springfield, CO

2:51 AM MST on February 11, 2016 (GMT -0700)
Springfield

Weather History for KSPD - March, 2013

Change the Weather History Date:

Friday, March 8, 2013

  Actual Average Record
Temperature  
Mean Temperature 57 °F -  
Max Temperature 75 °F 56 °F - ()
Min Temperature 38 °F 26 °F - ()
Degree Days  
Heating Degree Days 8 24  
Month to date heating degree days 153 203  
Since 1 July heating degree days 3930 4209  
Cooling Degree Days 0 0  
Month to date cooling degree days 0 0  
Year to date cooling degree days 0 0  
Growing Degree Days 7 (Base 50)    
Moisture  
Dew Point 27 °F    
Average Humidity 33    
Maximum Humidity 54    
Minimum Humidity 12    
Precipitation  
Precipitation 0.00 in 0.03 in - ()
Month to date precipitation 0.05 0.21  
Year to date precipitation 0.18 1.02  
Sea Level Pressure  
Sea Level Pressure 29.67 in    
Wind  
Wind Speed 14 mph (SW)    
Max Wind Speed 32 mph    
Max Gust Speed 52 mph    
T = Trace of Precipitation, MM = Missing Value Source: NWS Daily Summary

Daily Weather History Graph

Daily Weather History Graph

Search for Another Location

Airport or City:

Trip Planner

Search our weather history database for the weather conditions in past years. The results will help you decide how hot, cold, wet, or windy it might be!

Date:

Astronomy

Mar. 08, 2013 Rise Set
Actual Time 6:11 AM MST 5:51 PM MST
Civil Twilight 5:45 AM MST 6:17 PM MST
Nautical Twilight 5:15 AM MST 6:47 PM MST
Astronomical Twilight 4:44 AM MST 7:18 PM MST
Moon 3:53 AM MST (3/8) 2:52 PM MST (3/8)
Length of Visible Light 12h 32m
Length of Day
11h 40m
Waning Crescent, 11% of the Moon is Illuminated
Mar 8
Waning Crescent
Mar 11
New
Mar 19
First Quarter
Mar 27
Full
Apr 2
Last Quarter

Hourly Weather History & Observations

Time (MST) Temp. Windchill Dew Point Humidity Pressure Visibility Wind Dir Wind Speed Gust Speed Precip Events Conditions
12:56 AM 48.0 °F - 25.0 °F 41% 29.76 in - WSW 9.2 mph - N/A   Unknown
1:56 AM 45.0 °F 39.7 °F 25.0 °F 46% 29.76 in - SW 10.4 mph - N/A   Unknown
2:56 AM 44.1 °F 39.0 °F 25.0 °F 47% 29.73 in - WSW 9.2 mph - N/A   Unknown
3:56 AM 45.0 °F 39.7 °F 26.1 °F 48% 29.72 in - WSW 10.4 mph - N/A   Unknown
4:56 AM 44.1 °F 40.8 °F 26.1 °F 49% 29.73 in - West 5.8 mph - N/A   Unknown
5:56 AM 50.0 °F - 25.0 °F 38% 29.74 in - Variable 6.9 mph - N/A   Unknown
6:56 AM 41.0 °F - 24.1 °F 51% 29.80 in - Calm Calm - N/A   Unknown
7:56 AM 46.9 °F - 27.0 °F 46% 29.81 in - NNW 9.2 mph - N/A   Unknown
8:56 AM 52.0 °F - 28.9 °F 41% 29.79 in - North 10.4 mph - N/A   Unknown
9:56 AM 57.0 °F - 27.0 °F 32% 29.76 in - Variable 4.6 mph - N/A   Unknown
10:56 AM 60.1 °F - 27.0 °F 28% 29.73 in - SE 3.5 mph - N/A   Unknown
11:56 AM 69.1 °F - 26.1 °F 20% 29.66 in - SSE 17.3 mph 23.0 mph N/A   Unknown
12:56 PM 69.1 °F - 24.1 °F 18% 29.61 in - SE 17.3 mph 29.9 mph N/A   Unknown
1:56 PM 73.9 °F - 18.0 °F 12% 29.57 in - SSW 21.9 mph 39.1 mph N/A   Unknown
2:56 PM 72.0 °F - 19.0 °F 13% 29.56 in - SW 26.5 mph 38.0 mph N/A   Unknown
3:56 PM 72.0 °F - 19.0 °F 13% 29.54 in - SSW 33.4 mph 41.4 mph N/A   Unknown
4:56 PM 69.1 °F - 19.9 °F 15% 29.55 in - SSW 20.7 mph 26.5 mph N/A   Unknown
5:56 PM 66.0 °F - 19.0 °F 17% 29.55 in - SW 13.8 mph 20.7 mph N/A   Unknown
6:56 PM 60.1 °F - 33.1 °F 36% 29.63 in - West 15.0 mph 51.8 mph N/A   Unknown
7:03 PM 59.0 °F - 33.8 °F 39% 29.72 in - West 15.0 mph 24.2 mph N/A   Unknown
7:56 PM 55.0 °F - 37.0 °F 51% 29.66 in - West 17.3 mph 25.3 mph N/A   Unknown
8:56 PM 55.0 °F - 36.0 °F 49% 29.62 in - SW 19.6 mph 23.0 mph N/A   Unknown
9:56 PM 52.0 °F - 36.0 °F 54% 29.60 in - SW 12.7 mph - N/A   Unknown
10:56 PM 52.0 °F - 36.0 °F 54% 29.56 in - SW 17.3 mph 24.2 mph N/A   Unknown
11:56 PM 46.0 °F 38.8 °F 37.0 °F 71% 29.54 in - SSW 18.4 mph - N/A   Unknown